星链-31284 (STARLINK-31284 )

导读

STARLINK-31284是美国SpaceX星链计划的卫星,于2024年3月16日发射升空,属于星链星座组网的组成部分。星链系统旨在通过低轨卫星星座为全球提供高速互联网接入服务,该卫星入轨后将助力提升星链网络覆盖范围与服务稳定性,进一步推动全球互联基础设施建设。

Basic Information
目录编号:
59246
目录名称:
STARLINK-31284
国际标识:
2024-049R
轨道中心:
EARTH
卫星名称:
星链-31284
卫星全名:
星链-31284 (STARLINK-31284 )
卫星状态:
在轨 (已飞行902 天)
发射日期:
2024-03-16 UTC
国别 :
美国 (US)
星等 :
--
Orbit Information
数据来源 国际轨道数据
星历时间: 2026-09-03T15:38:35+0800
22小时前
查看轨道信息
半长轴: 6861.194km
偏心率: 0.0001069
轨道倾角: 43.003°
近地点辐角 275.686°
升交点赤经 220.251°
平近点角 84.387°
近地点: 482.323km
远地点: 483.791km
周期: 94.267分钟
每日圈数: 15.275774
Detailed Information
固有亮度:
5
最大亮度:
0.3
卫星平台:
Starlink v2.0 mini
覆盖范围:
全球
运营商:
太空探索技术公司
运营商所在国:
美国
制造商(研发单位):
太空探索技术公司
制造商所在国:
美国
使用方式:
暂无
Satellite Introduction
星链(Starlink)计划是由太空探索技术公司(SpaceX)提出的一个巨型低轨卫星互联网星座项目,计划在2019年至2024年间在太空搭建由约1.2万颗卫星组成的“星链”网络,其中1584颗将部署在地球上空550千米处的近地轨道,并从2020年开始工作。该卫星仍在工作。
2D Orbit Map
3D Orbit Map
Orbit Altitude Analysis Chart
Orbit Inclination Analysis Chart
Orbit Comprehensive Analysis Chart
View Comprehensive Chart
Conjunction Data List
Event ID Objects TCA Miss Dist (km) Collision Risk Probability Collision Risk Index (CRI) Action
CDM_260904-083105-924606-394421
2026-09-04T
08:31:08+0000
2.021 km
极远距离
1.396625E-6 低风险 0.38